GEFSCGP_prec_meanprecacc_222.txt.gz
Total_Precipitation_Accumulation
0.00 0.01 0.02 0.02 0.02 0.04 0.08 0.10 0.20 0.27 0.21 0.22 0.39 0.58 0.71 0.83 1.06 1.18 1.21 1.17 1.21 1.50 1.91 2.12 2.43 2.92 3.72 4.46 5.14 5.24 5.48 5.01 4.37 3.84 3.46 3.35 3.15 2.83 2.71 2.57 2.39 2.24 2.03 1.89
0.02 0.04 0.03 0.02 0.03 0.05 0.10 0.13 0.22 0.24 0.17 0.20 0.41 0.68 0.85 0.94 0.93 0.99 1.04 1.10 1.21 1.57 2.02 2.37 2.90 3.29 3.31 3.85 4.56 4.61 4.31 4.08 3.64 3.26 3.10 2.93 2.87 2.55 2.35 2.20 2.18 1.98 1.83 1.83
0.04 0.05 0.03 0.03 0.05 0.11 0.13 0.15 0.19 0.19 0.17 0.25 0.46 0.85 1.15 1.08 0.81 0.73 0.79 0.89 1.03 1.37 1.88 2.31 2.73 3.16 3.13 3.51 3.60 3.23 3.07 3.15 3.09 2.93 2.81 2.68 2.68 2.48 2.21 2.02 1.99 1.82 1.62 1.62
0.03 0.03 0.03 0.04 0.06 0.07 0.09 0.08 0.08 0.08 0.15 0.31 0.46 1.03 1.44 1.23 0.93 0.76 0.79 0.96 1.03 1.14 1.34 1.63 1.97 2.39 2.58 2.67 2.59 2.55 2.53 2.57 2.76 2.77 2.54 2.35 2.07 1.97 1.90 1.78 1.82 1.80 1.57 1.49
0.03 0.03 0.03 0.04 0.05 0.05 0.05 0.05 0.05 0.10 0.14 0.30 0.51 0.87 1.28 1.26 1.21 1.04 0.91 0.96 0.91 0.95 1.03 1.17 1.27 1.48 1.77 2.02 2.08 2.07 2.34 2.43 2.46 2.45 2.39 2.39 2.12 1.94 1.89 1.99 2.19 2.10 1.79 1.48
0.05 0.05 0.04 0.04 0.04 0.05 0.05 0.06 0.13 0.27 0.40 0.74 0.73 0.77 1.13 1.09 1.04 1.04 0.89 0.75 0.71 0.73 0.79 0.98 1.03 1.06 1.20 1.35 1.48 1.60 1.86 2.07 2.14 2.11 2.12 2.17 2.17 2.12 1.95 1.88 1.93 1.84 1.70 1.52
0.14 0.12 0.09 0.05 0.05 0.06 0.06 0.09 0.33 0.71 1.04 1.21 0.77 0.75 0.95 0.83 0.84 0.91 0.72 0.50 0.47 0.56 0.61 0.81 0.80 0.84 0.95 0.98 1.09 1.27 1.48 1.64 1.76 1.84 1.90 1.96 2.13 2.06 1.84 1.65 1.67 1.64 1.49 1.41
0.15 0.18 0.10 0.05 0.06 0.06 0.06 0.07 0.20 0.36 0.51 0.72 0.77 1.14 1.07 0.69 0.65 0.57 0.42 0.32 0.30 0.47 0.55 0.62 0.57 0.58 0.73 0.80 0.88 1.04 1.17 1.26 1.38 1.60 1.82 1.79 1.89 1.75 1.62 1.73 1.63 1.52 1.33 1.36
0.07 0.07 0.06 0.05 0.06 0.07 0.05 0.05 0.07 0.10 0.16 0.45 0.85 1.24 1.04 0.63 0.56 0.44 0.31 0.25 0.29 0.37 0.52 0.50 0.44 0.45 0.49 0.54 0.62 0.79 1.07 1.16 1.21 1.29 1.51 1.61 1.59 1.60 1.66 1.78 1.73 1.61 1.53 1.40
0.04 0.03 0.04 0.05 0.06 0.07 0.06 0.06 0.06 0.08 0.16 0.35 0.72 1.12 1.20 0.93 0.68 0.46 0.36 0.35 0.43 0.46 0.59 0.61 0.45 0.40 0.42 0.42 0.51 0.62 0.81 1.02 1.20 1.20 1.20 1.25 1.48 1.55 1.66 1.70 1.59 1.58 1.56 1.55
0.04 0.02 0.03 0.05 0.07 0.08 0.08 0.08 0.09 0.10 0.13 0.23 0.56 0.82 0.74 0.73 0.57 0.45 0.45 0.54 0.44 0.44 0.50 0.56 0.39 0.32 0.36 0.39 0.47 0.60 0.74 1.01 1.19 1.10 1.13 1.26 1.42 1.51 1.56 1.69 1.67 1.61 1.58 1.61
0.05 0.03 0.04 0.08 0.11 0.11 0.10 0.11 0.11 0.15 0.16 0.17 0.29 0.52 0.45 0.52 0.51 0.58 0.63 0.61 0.54 0.51 0.52 0.54 0.45 0.47 0.50 0.54 0.58 0.68 0.77 0.90 1.02 1.07 1.16 1.23 1.34 1.42 1.45 1.49 1.58 1.65 1.62 1.68
0.06 0.05 0.07 0.21 0.31 0.23 0.15 0.11 0.12 0.13 0.13 0.16 0.31 0.52 0.45 0.50 0.53 0.58 0.60 0.58 0.65 0.66 0.61 0.58 0.60 0.67 0.64 0.65 0.74 0.81 0.87 0.88 0.99 1.16 1.18 1.15 1.22 1.21 1.26 1.34 1.42 1.54 1.60 1.63
0.07 0.06 0.08 0.22 0.33 0.36 0.27 0.17 0.16 0.13 0.14 0.17 0.25 0.47 0.46 0.57 0.71 0.64 0.69 0.64 0.59 0.60 0.59 0.53 0.58 0.62 0.66 0.68 0.72 0.80 0.87 0.92 1.00 1.01 1.03 1.07 1.11 1.15 1.25 1.35 1.39 1.44 1.42 1.48
0.09 0.07 0.05 0.09 0.17 0.20 0.21 0.20 0.18 0.13 0.12 0.18 0.25 0.40 0.53 0.63 0.76 0.68 0.68 0.74 0.75 0.62 0.54 0.45 0.45 0.54 0.64 0.70 0.72 0.79 0.85 0.94 1.08 1.08 1.06 1.10 1.16 1.16 1.20 1.24 1.25 1.27 1.34 1.36
0.15 0.11 0.10 0.11 0.14 0.14 0.16 0.18 0.16 0.11 0.09 0.10 0.19 0.39 0.55 0.68 0.70 0.65 0.57 0.56 0.70 0.63 0.55 0.53 0.53 0.60 0.64 0.66 0.68 0.71 0.72 0.82 0.98 1.06 1.16 1.25 1.24 1.14 1.18 1.19 1.17 1.22 1.33 1.42
0.28 0.22 0.21 0.21 0.17 0.18 0.25 0.21 0.18 0.15 0.13 0.14 0.25 0.39 0.55 0.69 0.61 0.64 0.60 0.53 0.52 0.52 0.51 0.58 0.63 0.65 0.65 0.65 0.63 0.64 0.62 0.74 1.02 1.12 1.14 1.28 1.35 1.25 1.30 1.33 1.32 1.33 1.38 1.49
0.38 0.39 0.31 0.28 0.31 0.38 0.29 0.24 0.23 0.25 0.26 0.24 0.28 0.39 0.61 0.79 0.70 0.63 0.63 0.62 0.56 0.46 0.50 0.58 0.60 0.61 0.63 0.64 0.65 0.65 0.66 0.73 0.98 1.15 1.21 1.41 1.56 1.46 1.47 1.47 1.49 1.52 1.57 1.62
0.39 0.47 0.47 0.42 0.44 0.47 0.39 0.35 0.36 0.45 0.56 0.47 0.48 0.61 0.67 0.65 0.67 0.72 0.67 0.61 0.56 0.55 0.59 0.61 0.65 0.67 0.73 0.80 0.82 0.82 0.89 0.99 1.13 1.25 1.36 1.58 1.77 1.81 1.78 1.72 1.80 1.84 1.85 1.87
0.35 0.45 0.55 0.57 0.64 0.73 0.67 0.53 0.49 0.63 1.00 0.81 0.66 0.69 0.71 0.70 0.88 0.90 0.66 0.56 0.54 0.57 0.65 0.77 0.87 0.86 0.87 0.95 0.95 0.98 1.09 1.28 1.41 1.43 1.45 1.56 1.75 1.83 1.81 1.80 1.95 2.08 2.10 2.07
0.54 0.55 0.57 0.64 0.75 0.75 0.67 0.60 0.63 1.11 1.47 1.04 0.89 0.91 0.95 0.94 0.91 0.78 0.71 0.71 0.63 0.59 0.66 0.72 0.75 0.86 0.97 1.07 1.14 1.24 1.28 1.36 1.40 1.41 1.44 1.53 1.76 2.05 1.98 2.00 2.06 2.16 2.20 2.22
0.73 0.74 0.72 0.76 0.99 1.12 0.74 0.65 1.00 1.35 1.24 1.26 1.22 1.20 1.14 1.00 0.82 0.71 0.70 0.75 0.65 0.62 0.70 0.71 0.71 0.82 0.99 1.18 1.35 1.39 1.38 1.40 1.48 1.49 1.51 1.59 1.82 1.92 1.97 2.09 2.14 2.25 2.34 2.33
0.83 0.94 0.93 1.02 1.23 1.14 0.90 0.96 1.00 1.07 1.19 1.25 1.18 1.19 1.16 1.10 0.98 0.87 0.82 0.77 0.72 0.72 0.74 0.81 0.83 0.88 0.98 1.15 1.36 1.49 1.50 1.49 1.47 1.44 1.44 1.53 1.66 1.73 1.86 1.94 1.89 1.94 2.05 2.05
0.97 0.86 1.08 1.41 1.41 1.24 1.07 0.98 0.98 0.94 1.02 1.02 0.99 0.94 0.93 0.93 0.91 0.88 0.88 0.89 0.91 0.92 0.88 0.90 0.91 0.93 1.00 1.09 1.27 1.41 1.39 1.41 1.44 1.38 1.34 1.44 1.63 1.73 1.80 1.86 1.84 1.89 1.95 1.99
1.25 1.17 1.37 1.74 1.70 1.50 1.40 1.23 1.18 1.04 1.00 0.98 0.95 0.92 0.86 0.78 0.77 0.77 0.74 0.75 0.81 0.88 0.91 0.88 0.87 0.91 0.93 1.01 1.21 1.35 1.36 1.39 1.47 1.44 1.39 1.45 1.55 1.65 1.79 1.84 1.87 1.89 1.89 1.86
1.19 1.40 1.66 1.86 1.70 1.59 1.58 1.29 1.24 1.30 1.18 1.04 1.04 1.00 0.91 0.78 0.72 0.69 0.68 0.68 0.70 0.78 0.90 0.93 0.95 0.94 0.93 1.00 1.15 1.27 1.43 1.58 1.61 1.53 1.48 1.44 1.41 1.48 1.56 1.63 1.59 1.53 1.49 1.47

GEFSCGP_prec_meanprecacc_228.txt.gz
Total_Precipitation_Accumulation
0.01 0.01 0.02 0.03 0.05 0.07 0.09 0.12 0.21 0.28 0.22 0.23 0.41 0.59 0.72 0.83 1.06 1.19 1.22 1.17 1.21 1.51 1.96 2.14 2.44 2.93 3.73 4.47 5.14 5.25 5.49 5.02 4.38 3.85 3.48 3.37 3.16 2.85 2.72 2.59 2.41 2.26 2.05 1.91
0.02 0.04 0.04 0.02 0.04 0.07 0.11 0.14 0.23 0.25 0.18 0.22 0.43 0.71 0.86 0.95 0.94 1.00 1.05 1.10 1.21 1.58 2.03 2.38 2.90 3.30 3.33 3.87 4.56 4.61 4.32 4.09 3.64 3.26 3.11 2.94 2.88 2.56 2.37 2.21 2.21 2.01 1.85 1.85
0.04 0.06 0.04 0.03 0.06 0.11 0.13 0.16 0.20 0.20 0.18 0.27 0.48 0.88 1.16 1.08 0.82 0.74 0.80 0.89 1.03 1.38 1.89 2.31 2.73 3.16 3.14 3.52 3.60 3.23 3.07 3.15 3.10 2.94 2.83 2.70 2.69 2.49 2.22 2.04 2.01 1.84 1.64 1.65
0.03 0.03 0.03 0.04 0.06 0.08 0.11 0.09 0.09 0.09 0.16 0.33 0.49 1.07 1.46 1.25 0.94 0.77 0.80 0.97 1.03 1.15 1.35 1.63 1.97 2.39 2.59 2.68 2.59 2.55 2.53 2.58 2.77 2.77 2.54 2.36 2.09 1.99 1.91 1.80 1.84 1.82 1.59 1.52
0.03 0.03 0.03 0.04 0.05 0.05 0.07 0.05 0.06 0.10 0.15 0.32 0.55 0.91 1.31 1.28 1.23 1.06 0.93 0.98 0.92 0.96 1.04 1.18 1.27 1.48 1.77 2.02 2.08 2.07 2.35 2.44 2.48 2.46 2.41 2.41 2.14 1.96 1.90 2.02 2.22 2.14 1.83 1.51
0.05 0.05 0.04 0.04 0.04 0.05 0.05 0.06 0.14 0.28 0.41 0.75 0.74 0.80 1.16 1.12 1.06 1.06 0.91 0.77 0.73 0.76 0.81 0.99 1.03 1.06 1.20 1.35 1.48 1.60 1.86 2.08 2.16 2.12 2.13 2.19 2.18 2.14 1.96 1.90 1.95 1.89 1.75 1.55
0.14 0.12 0.09 0.05 0.05 0.06 0.06 0.09 0.34 0.73 1.05 1.22 0.79 0.76 0.97 0.84 0.86 0.93 0.75 0.52 0.48 0.58 0.64 0.81 0.80 0.84 0.95 0.98 1.09 1.27 1.48 1.64 1.76 1.84 1.92 1.98 2.15 2.08 1.86 1.66 1.69 1.68 1.54 1.45
0.15 0.19 0.11 0.05 0.06 0.07 0.06 0.07 0.21 0.37 0.52 0.74 0.79 1.15 1.08 0.70 0.66 0.59 0.44 0.34 0.32 0.48 0.56 0.62 0.57 0.58 0.73 0.80 0.88 1.04 1.17 1.26 1.38 1.60 1.83 1.81 1.91 1.77 1.64 1.74 1.65 1.54 1.35 1.38
0.07 0.07 0.06 0.05 0.06 0.07 0.05 0.05 0.07 0.11 0.17 0.47 0.89 1.27 1.06 0.64 0.57 0.46 0.33 0.26 0.30 0.38 0.53 0.51 0.44 0.46 0.49 0.54 0.62 0.79 1.07 1.17 1.21 1.30 1.52 1.62 1.60 1.61 1.67 1.80 1.74 1.62 1.54 1.41
0.04 0.03 0.04 0.05 0.06 0.07 0.06 0.06 0.06 0.09 0.17 0.36 0.76 1.15 1.24 0.99 0.73 0.49 0.38 0.37 0.45 0.47 0.59 0.62 0.45 0.41 0.43 0.42 0.51 0.62 0.81 1.02 1.21 1.21 1.21 1.25 1.49 1.56 1.67 1.71 1.60 1.59 1.57 1.56
0.04 0.02 0.04 0.05 0.07 0.08 0.08 0.08 0.09 0.11 0.15 0.26 0.57 0.84 0.78 0.78 0.63 0.50 0.49 0.58 0.47 0.45 0.52 0.58 0.40 0.33 0.37 0.40 0.47 0.61 0.75 1.03 1.23 1.14 1.15 1.26 1.43 1.52 1.57 1.71 1.69 1.62 1.60 1.63
0.05 0.03 0.04 0.08 0.11 0.11 0.10 0.11 0.11 0.15 0.17 0.18 0.30 0.53 0.46 0.54 0.55 0.63 0.66 0.63 0.56 0.53 0.54 0.56 0.47 0.48 0.50 0.55 0.58 0.70 0.80 0.97 1.09 1.11 1.18 1.24 1.34 1.42 1.47 1.52 1.60 1.67 1.64 1.69
0.06 0.05 0.07 0.22 0.32 0.23 0.15 0.11 0.12 0.13 0.13 0.16 0.32 0.54 0.47 0.53 0.58 0.64 0.66 0.63 0.68 0.71 0.64 0.59 0.62 0.70 0.67 0.70 0.78 0.85 0.93 0.96 1.04 1.19 1.19 1.16 1.23 1.22 1.27 1.35 1.44 1.57 1.62 1.66
0.07 0.06 0.08 0.22 0.33 0.37 0.27 0.17 0.16 0.13 0.14 0.18 0.26 0.48 0.48 0.60 0.82 0.74 0.78 0.72 0.65 0.68 0.65 0.55 0.61 0.66 0.71 0.73 0.80 0.89 0.94 0.97 1.03 1.05 1.06 1.09 1.12 1.17 1.27 1.36 1.41 1.47 1.44 1.51
0.09 0.07 0.05 0.09 0.17 0.20 0.22 0.20 0.18 0.13 0.12 0.18 0.26 0.41 0.56 0.67 0.90 0.76 0.73 0.78 0.80 0.69 0.63 0.51 0.53 0.61 0.71 0.75 0.75 0.82 0.92 0.98 1.11 1.11 1.08 1.12 1.19 1.18 1.22 1.25 1.27 1.30 1.36 1.38
0.15 0.11 0.10 0.11 0.14 0.14 0.16 0.18 0.16 0.11 0.10 0.10 0.20 0.42 0.62 0.71 0.77 0.73 0.60 0.59 0.74 0.68 0.59 0.58 0.63 0.70 0.70 0.69 0.70 0.73 0.74 0.84 1.01 1.08 1.18 1.27 1.26 1.16 1.19 1.21 1.20 1.25 1.36 1.45
0.28 0.22 0.21 0.21 0.17 0.19 0.25 0.21 0.18 0.15 0.13 0.14 0.26 0.42 0.59 0.71 0.64 0.69 0.63 0.56 0.56 0.55 0.53 0.61 0.67 0.71 0.71 0.69 0.67 0.67 0.66 0.77 1.05 1.15 1.17 1.31 1.38 1.29 1.33 1.36 1.35 1.36 1.40 1.53
0.38 0.39 0.32 0.28 0.31 0.38 0.30 0.24 0.23 0.25 0.26 0.24 0.28 0.40 0.61 0.80 0.71 0.65 0.67 0.66 0.59 0.47 0.52 0.61 0.62 0.63 0.65 0.67 0.69 0.69 0.70 0.76 1.00 1.18 1.24 1.46 1.61 1.51 1.52 1.51 1.53 1.56 1.61 1.66
0.39 0.47 0.47 0.42 0.44 0.47 0.40 0.36 0.37 0.46 0.57 0.48 0.49 0.62 0.68 0.66 0.68 0.73 0.69 0.64 0.58 0.56 0.61 0.63 0.67 0.69 0.75 0.82 0.85 0.84 0.92 1.03 1.17 1.30 1.42 1.64 1.84 1.90 1.85 1.77 1.85 1.90 1.90 1.91
0.35 0.46 0.55 0.58 0.64 0.73 0.68 0.55 0.50 0.64 1.02 0.83 0.68 0.70 0.72 0.71 0.89 0.91 0.67 0.58 0.55 0.58 0.66 0.77 0.88 0.87 0.89 0.97 0.97 1.01 1.13 1.32 1.46 1.48 1.51 1.63 1.83 1.91 1.88 1.86 2.01 2.15 2.15 2.11
0.54 0.55 0.58 0.65 0.75 0.76 0.68 0.60 0.64 1.12 1.49 1.06 0.91 0.92 0.95 0.95 0.91 0.79 0.72 0.72 0.64 0.60 0.67 0.73 0.76 0.87 0.97 1.08 1.16 1.27 1.33 1.41 1.45 1.47 1.49 1.58 1.81 2.11 2.04 2.05 2.11 2.23 2.27 2.29
0.74 0.74 0.72 0.77 1.01 1.14 0.74 0.65 1.01 1.37 1.26 1.28 1.24 1.22 1.16 1.01 0.83 0.72 0.72 0.77 0.69 0.65 0.72 0.72 0.71 0.83 1.00 1.19 1.37 1.42 1.41 1.44 1.54 1.55 1.55 1.63 1.87 1.96 2.00 2.12 2.17 2.30 2.39 2.39
0.84 0.94 0.94 1.03 1.25 1.15 0.91 0.98 1.02 1.10 1.22 1.27 1.20 1.21 1.18 1.13 1.00 0.89 0.84 0.80 0.76 0.82 0.82 0.84 0.84 0.90 1.00 1.17 1.38 1.52 1.53 1.53 1.51 1.48 1.47 1.56 1.69 1.76 1.89 1.97 1.93 1.99 2.11 2.12
0.98 0.87 1.09 1.43 1.42 1.25 1.09 1.00 1.01 0.99 1.05 1.05 1.00 0.96 0.95 0.95 0.93 0.90 0.90 0.92 0.94 0.99 0.95 0.94 0.96 0.98 1.04 1.13 1.31 1.45 1.44 1.48 1.48 1.42 1.38 1.47 1.67 1.77 1.84 1.89 1.88 1.94 2.01 2.06
1.25 1.18 1.39 1.78 1.74 1.53 1.43 1.24 1.19 1.07 1.04 1.04 0.97 0.93 0.88 0.79 0.79 0.79 0.77 0.79 0.85 0.93 0.95 0.92 0.93 0.96 0.98 1.06 1.27 1.41 1.42 1.46 1.52 1.49 1.44 1.51 1.61 1.72 1.85 1.90 1.93 1.95 1.96 1.92
1.20 1.40 1.68 1.92 1.74 1.61 1.61 1.31 1.26 1.32 1.20 1.08 1.06 1.02 0.93 0.80 0.75 0.74 0.72 0.73 0.76 0.83 0.95 0.97 1.00 0.99 0.98 1.06 1.21 1.34 1.49 1.63 1.66 1.58 1.53 1.49 1.48 1.56 1.63 1.69 1.65 1.58 1.53 1.51

GEFSCGP_prec_meanprecacc_234.txt.gz
Total_Precipitation_Accumulation
0.01 0.01 0.03 0.03 0.05 0.07 0.10 0.13 0.21 0.28 0.22 0.24 0.41 0.59 0.72 0.83 1.06 1.19 1.22 1.17 1.21 1.51 1.97 2.14 2.45 2.93 3.74 4.47 5.15 5.25 5.51 5.04 4.41 3.87 3.49 3.37 3.17 2.86 2.74 2.61 2.45 2.30 2.07 1.95
0.02 0.05 0.04 0.03 0.04 0.07 0.11 0.15 0.24 0.25 0.18 0.22 0.43 0.71 0.87 0.95 0.94 1.00 1.05 1.11 1.22 1.58 2.04 2.38 2.91 3.30 3.33 3.87 4.57 4.61 4.32 4.10 3.67 3.28 3.12 2.95 2.89 2.57 2.38 2.24 2.24 2.04 1.90 1.90
0.04 0.06 0.04 0.03 0.06 0.11 0.14 0.17 0.21 0.20 0.18 0.27 0.49 0.89 1.17 1.09 0.82 0.74 0.80 0.90 1.03 1.38 1.89 2.31 2.73 3.17 3.14 3.52 3.60 3.23 3.08 3.16 3.11 2.95 2.85 2.72 2.70 2.50 2.23 2.06 2.03 1.88 1.69 1.69
0.03 0.03 0.03 0.04 0.07 0.08 0.11 0.09 0.09 0.09 0.17 0.33 0.49 1.07 1.47 1.25 0.94 0.77 0.80 0.97 1.04 1.15 1.35 1.63 1.97 2.39 2.59 2.68 2.59 2.56 2.54 2.58 2.78 2.79 2.57 2.38 2.10 2.00 1.93 1.82 1.87 1.85 1.62 1.54
0.03 0.03 0.03 0.04 0.05 0.06 0.07 0.05 0.06 0.11 0.16 0.32 0.55 0.91 1.31 1.29 1.23 1.06 0.93 0.98 0.93 0.97 1.04 1.18 1.27 1.48 1.77 2.02 2.09 2.07 2.35 2.45 2.48 2.47 2.43 2.43 2.16 1.98 1.94 2.05 2.24 2.17 1.84 1.52
0.05 0.05 0.04 0.04 0.04 0.05 0.05 0.06 0.14 0.28 0.42 0.76 0.75 0.81 1.16 1.12 1.07 1.06 0.92 0.78 0.73 0.77 0.82 0.99 1.03 1.07 1.20 1.35 1.48 1.60 1.87 2.08 2.16 2.13 2.15 2.21 2.21 2.17 2.00 1.93 1.98 1.91 1.77 1.57
0.14 0.12 0.09 0.05 0.05 0.06 0.06 0.09 0.34 0.74 1.06 1.23 0.80 0.77 0.97 0.85 0.86 0.94 0.75 0.52 0.49 0.59 0.64 0.82 0.81 0.85 0.95 0.99 1.09 1.27 1.48 1.65 1.77 1.85 1.94 2.00 2.18 2.12 1.89 1.68 1.71 1.70 1.56 1.47
0.15 0.19 0.11 0.05 0.06 0.07 0.07 0.07 0.21 0.38 0.53 0.74 0.79 1.15 1.08 0.70 0.67 0.60 0.44 0.34 0.32 0.48 0.57 0.62 0.57 0.59 0.74 0.80 0.88 1.04 1.17 1.26 1.38 1.60 1.83 1.82 1.94 1.79 1.66 1.76 1.66 1.56 1.37 1.40
0.07 0.07 0.06 0.05 0.06 0.07 0.06 0.05 0.07 0.11 0.17 0.47 0.89 1.27 1.06 0.64 0.58 0.47 0.34 0.26 0.31 0.39 0.53 0.51 0.44 0.46 0.50 0.55 0.62 0.79 1.07 1.17 1.21 1.30 1.52 1.63 1.62 1.62 1.69 1.81 1.75 1.63 1.56 1.45
0.04 0.03 0.04 0.05 0.06 0.07 0.06 0.06 0.07 0.09 0.17 0.36 0.76 1.15 1.25 1.00 0.73 0.50 0.39 0.37 0.45 0.47 0.60 0.63 0.46 0.41 0.44 0.43 0.51 0.63 0.81 1.02 1.21 1.21 1.21 1.26 1.50 1.57 1.68 1.72 1.62 1.61 1.58 1.58
0.04 0.02 0.04 0.05 0.07 0.08 0.08 0.08 0.09 0.11 0.15 0.26 0.57 0.84 0.78 0.78 0.64 0.50 0.50 0.59 0.47 0.46 0.52 0.59 0.41 0.33 0.37 0.41 0.48 0.62 0.76 1.04 1.23 1.15 1.16 1.27 1.44 1.53 1.58 1.73 1.71 1.64 1.61 1.65
0.05 0.03 0.04 0.08 0.12 0.11 0.10 0.11 0.11 0.15 0.17 0.18 0.30 0.53 0.46 0.54 0.55 0.64 0.67 0.64 0.56 0.54 0.54 0.57 0.49 0.49 0.51 0.56 0.60 0.71 0.83 1.01 1.12 1.14 1.21 1.27 1.37 1.44 1.48 1.53 1.62 1.69 1.67 1.71
0.06 0.05 0.07 0.22 0.32 0.23 0.15 0.11 0.12 0.13 0.13 0.16 0.32 0.54 0.47 0.53 0.59 0.64 0.66 0.63 0.69 0.71 0.65 0.60 0.63 0.72 0.69 0.71 0.81 0.88 0.97 1.03 1.13 1.26 1.26 1.21 1.27 1.25 1.29 1.37 1.45 1.59 1.64 1.68
0.07 0.06 0.08 0.22 0.33 0.37 0.27 0.17 0.16 0.13 0.14 0.18 0.26 0.48 0.48 0.60 0.82 0.75 0.78 0.74 0.67 0.69 0.66 0.56 0.63 0.69 0.72 0.75 0.84 0.95 1.00 1.03 1.12 1.16 1.18 1.18 1.16 1.20 1.30 1.39 1.43 1.48 1.46 1.53
0.09 0.07 0.05 0.09 0.17 0.20 0.22 0.20 0.18 0.14 0.12 0.18 0.26 0.41 0.56 0.68 0.91 0.77 0.73 0.80 0.86 0.73 0.64 0.52 0.54 0.63 0.73 0.79 0.79 0.85 0.94 1.02 1.16 1.17 1.13 1.16 1.22 1.22 1.26 1.29 1.30 1.33 1.40 1.42
0.15 0.11 0.10 0.11 0.14 0.14 0.16 0.18 0.16 0.12 0.10 0.10 0.20 0.42 0.62 0.71 0.78 0.74 0.60 0.62 0.81 0.72 0.61 0.59 0.65 0.73 0.73 0.72 0.72 0.75 0.76 0.87 1.05 1.15 1.25 1.31 1.30 1.21 1.25 1.25 1.24 1.29 1.40 1.49
0.28 0.22 0.21 0.21 0.17 0.19 0.26 0.21 0.18 0.15 0.13 0.14 0.26 0.42 0.59 0.72 0.65 0.70 0.63 0.57 0.59 0.58 0.54 0.62 0.69 0.73 0.73 0.72 0.69 0.69 0.69 0.81 1.08 1.18 1.20 1.35 1.43 1.34 1.39 1.41 1.40 1.41 1.45 1.57
0.38 0.39 0.32 0.28 0.31 0.38 0.30 0.25 0.23 0.26 0.27 0.25 0.28 0.40 0.62 0.80 0.72 0.66 0.68 0.67 0.60 0.48 0.52 0.61 0.63 0.64 0.67 0.70 0.71 0.71 0.73 0.79 1.03 1.20 1.28 1.50 1.65 1.56 1.57 1.57 1.60 1.65 1.70 1.74
0.39 0.47 0.47 0.42 0.44 0.47 0.40 0.37 0.38 0.47 0.57 0.48 0.49 0.62 0.68 0.66 0.68 0.74 0.70 0.65 0.59 0.57 0.61 0.64 0.68 0.70 0.76 0.83 0.86 0.86 0.94 1.05 1.19 1.32 1.45 1.67 1.88 1.93 1.89 1.83 1.91 1.96 1.96 1.96
0.35 0.46 0.55 0.58 0.64 0.73 0.68 0.55 0.50 0.64 1.03 0.84 0.68 0.71 0.72 0.72 0.90 0.92 0.68 0.59 0.56 0.59 0.67 0.78 0.89 0.89 0.92 0.99 0.99 1.02 1.14 1.34 1.47 1.50 1.53 1.66 1.86 1.94 1.92 1.90 2.06 2.19 2.19 2.14
0.54 0.55 0.58 0.65 0.75 0.76 0.68 0.60 0.64 1.13 1.50 1.07 0.92 0.93 0.97 0.96 0.92 0.80 0.73 0.73 0.65 0.62 0.70 0.76 0.79 0.91 1.01 1.11 1.18 1.29 1.35 1.43 1.47 1.49 1.51 1.60 1.84 2.13 2.07 2.08 2.15 2.26 2.30 2.32
0.74 0.74 0.72 0.77 1.01 1.14 0.74 0.65 1.02 1.38 1.26 1.29 1.26 1.23 1.18 1.03 0.85 0.74 0.73 0.78 0.70 0.67 0.75 0.75 0.74 0.86 1.03 1.22 1.40 1.45 1.43 1.47 1.56 1.57 1.57 1.66 1.89 2.00 2.04 2.17 2.22 2.33 2.43 2.42
0.84 0.94 0.94 1.03 1.25 1.15 0.91 0.98 1.03 1.11 1.23 1.29 1.22 1.23 1.20 1.14 1.01 0.90 0.86 0.82 0.79 0.85 0.84 0.85 0.86 0.93 1.05 1.21 1.42 1.56 1.58 1.58 1.55 1.51 1.49 1.58 1.73 1.81 1.95 2.04 1.97 2.03 2.15 2.14
0.99 0.88 1.10 1.43 1.43 1.26 1.10 1.00 1.01 0.99 1.06 1.06 1.02 0.97 0.96 0.96 0.93 0.91 0.92 0.95 0.97 1.03 1.00 0.99 1.02 1.03 1.08 1.18 1.36 1.51 1.51 1.53 1.53 1.45 1.41 1.52 1.72 1.82 1.89 1.94 1.92 1.98 2.05 2.10
1.26 1.19 1.40 1.79 1.76 1.54 1.44 1.25 1.20 1.07 1.04 1.04 0.98 0.94 0.89 0.80 0.80 0.81 0.78 0.81 0.88 0.98 1.01 1.01 1.04 1.06 1.05 1.12 1.32 1.46 1.47 1.51 1.57 1.54 1.50 1.58 1.69 1.78 1.90 1.94 1.99 2.01 2.02 1.99
1.21 1.42 1.69 1.93 1.76 1.62 1.62 1.32 1.27 1.32 1.20 1.08 1.07 1.03 0.94 0.81 0.76 0.77 0.74 0.75 0.79 0.88 1.01 1.05 1.11 1.09 1.06 1.11 1.25 1.38 1.53 1.68 1.72 1.65 1.60 1.56 1.54 1.62 1.69 1.74 1.71 1.65 1.60 1.58

GEFSCGP_prec_meanprecacc_240.txt.gz
Total_Precipitation_Accumulation
0.01 0.01 0.03 0.03 0.05 0.07 0.10 0.13 0.22 0.28 0.22 0.24 0.41 0.59 0.72 0.83 1.06 1.19 1.22 1.17 1.21 1.51 1.97 2.14 2.45 2.93 3.74 4.47 5.15 5.29 5.58 5.07 4.43 3.89 3.53 3.42 3.22 2.91 2.78 2.64 2.48 2.34 2.12 2.01
0.02 0.05 0.04 0.03 0.04 0.07 0.11 0.15 0.24 0.25 0.18 0.22 0.43 0.71 0.87 0.95 0.94 1.00 1.05 1.11 1.22 1.58 2.04 2.38 2.91 3.30 3.33 3.87 4.57 4.62 4.34 4.12 3.68 3.30 3.15 2.99 2.93 2.60 2.41 2.27 2.27 2.07 1.93 1.95
0.04 0.06 0.04 0.04 0.06 0.11 0.14 0.17 0.21 0.20 0.18 0.27 0.49 0.89 1.17 1.09 0.82 0.74 0.80 0.90 1.03 1.38 1.89 2.31 2.73 3.17 3.14 3.52 3.60 3.23 3.09 3.18 3.13 2.97 2.87 2.73 2.73 2.53 2.26 2.09 2.07 1.92 1.72 1.72
0.03 0.03 0.03 0.04 0.07 0.08 0.11 0.09 0.09 0.09 0.17 0.33 0.49 1.07 1.47 1.25 0.94 0.77 0.80 0.97 1.04 1.15 1.35 1.63 1.97 2.39 2.59 2.68 2.59 2.56 2.55 2.59 2.79 2.80 2.58 2.40 2.13 2.04 1.97 1.86 1.90 1.89 1.64 1.56
0.03 0.03 0.03 0.05 0.05 0.06 0.07 0.05 0.06 0.11 0.16 0.33 0.55 0.91 1.31 1.29 1.23 1.06 0.93 0.98 0.93 0.97 1.04 1.18 1.27 1.49 1.77 2.02 2.09 2.08 2.36 2.46 2.49 2.48 2.44 2.46 2.20 2.03 1.98 2.09 2.28 2.20 1.86 1.54
0.05 0.05 0.04 0.04 0.04 0.05 0.05 0.06 0.14 0.29 0.42 0.77 0.76 0.81 1.16 1.12 1.07 1.06 0.92 0.78 0.73 0.77 0.82 0.99 1.03 1.07 1.20 1.35 1.48 1.60 1.87 2.09 2.17 2.14 2.15 2.22 2.24 2.21 2.03 1.97 2.03 1.95 1.79 1.59
0.14 0.12 0.09 0.05 0.05 0.06 0.06 0.10 0.35 0.74 1.07 1.23 0.80 0.77 0.97 0.85 0.86 0.94 0.75 0.52 0.49 0.59 0.64 0.82 0.81 0.85 0.95 0.99 1.09 1.28 1.48 1.66 1.77 1.86 1.94 2.01 2.21 2.16 1.93 1.72 1.76 1.74 1.58 1.49
0.15 0.19 0.11 0.05 0.06 0.07 0.07 0.08 0.22 0.38 0.53 0.74 0.79 1.15 1.08 0.70 0.67 0.60 0.44 0.34 0.32 0.48 0.57 0.62 0.57 0.59 0.74 0.80 0.88 1.04 1.18 1.27 1.38 1.61 1.83 1.83 1.97 1.84 1.71 1.82 1.71 1.61 1.41 1.44
0.07 0.07 0.06 0.05 0.06 0.07 0.06 0.05 0.08 0.11 0.18 0.47 0.89 1.27 1.06 0.64 0.58 0.47 0.34 0.26 0.31 0.39 0.53 0.51 0.45 0.46 0.50 0.55 0.62 0.80 1.07 1.17 1.21 1.30 1.52 1.63 1.63 1.65 1.73 1.87 1.81 1.68 1.59 1.47
0.04 0.03 0.04 0.05 0.06 0.07 0.06 0.06 0.07 0.09 0.17 0.36 0.76 1.15 1.25 1.00 0.73 0.50 0.39 0.37 0.45 0.47 0.60 0.63 0.47 0.42 0.45 0.44 0.52 0.64 0.82 1.03 1.21 1.21 1.21 1.26 1.51 1.58 1.70 1.75 1.65 1.64 1.61 1.61
0.04 0.02 0.04 0.05 0.07 0.08 0.08 0.08 0.09 0.11 0.15 0.26 0.57 0.84 0.78 0.78 0.64 0.50 0.50 0.59 0.47 0.46 0.53 0.59 0.42 0.35 0.38 0.42 0.49 0.62 0.76 1.04 1.24 1.15 1.17 1.28 1.44 1.54 1.60 1.75 1.73 1.67 1.65 1.69
0.05 0.03 0.04 0.08 0.12 0.11 0.10 0.11 0.11 0.15 0.17 0.18 0.30 0.53 0.46 0.54 0.55 0.64 0.67 0.64 0.57 0.54 0.55 0.58 0.50 0.50 0.52 0.56 0.60 0.72 0.84 1.02 1.13 1.15 1.22 1.28 1.38 1.45 1.50 1.56 1.64 1.71 1.69 1.74
0.06 0.05 0.07 0.22 0.32 0.23 0.15 0.11 0.12 0.13 0.13 0.16 0.32 0.54 0.47 0.53 0.59 0.64 0.67 0.64 0.70 0.72 0.65 0.61 0.64 0.72 0.69 0.71 0.81 0.89 0.97 1.03 1.14 1.27 1.27 1.23 1.29 1.27 1.33 1.42 1.48 1.60 1.66 1.70
0.07 0.06 0.08 0.22 0.33 0.37 0.27 0.17 0.16 0.13 0.14 0.18 0.26 0.48 0.48 0.60 0.82 0.75 0.79 0.75 0.68 0.70 0.67 0.57 0.64 0.69 0.73 0.75 0.85 0.96 1.00 1.03 1.12 1.16 1.20 1.23 1.23 1.26 1.36 1.44 1.47 1.52 1.49 1.55
0.09 0.07 0.05 0.09 0.17 0.20 0.22 0.21 0.18 0.14 0.12 0.18 0.26 0.42 0.57 0.68 0.91 0.77 0.74 0.81 0.87 0.74 0.65 0.53 0.55 0.63 0.73 0.79 0.80 0.85 0.94 1.02 1.17 1.18 1.15 1.20 1.27 1.29 1.33 1.34 1.34 1.37 1.43 1.45
0.15 0.11 0.10 0.11 0.14 0.14 0.16 0.18 0.16 0.12 0.10 0.10 0.20 0.42 0.62 0.71 0.78 0.74 0.61 0.63 0.83 0.73 0.62 0.60 0.66 0.73 0.73 0.72 0.72 0.75 0.76 0.87 1.05 1.16 1.25 1.32 1.31 1.24 1.29 1.30 1.28 1.31 1.42 1.52
0.28 0.22 0.21 0.21 0.17 0.19 0.26 0.21 0.18 0.15 0.13 0.14 0.26 0.42 0.59 0.72 0.65 0.70 0.64 0.58 0.60 0.58 0.55 0.63 0.70 0.74 0.74 0.73 0.69 0.69 0.70 0.81 1.09 1.18 1.21 1.36 1.44 1.35 1.40 1.43 1.43 1.44 1.47 1.59
0.38 0.39 0.32 0.28 0.31 0.38 0.30 0.25 0.23 0.26 0.27 0.25 0.28 0.40 0.62 0.80 0.72 0.67 0.68 0.68 0.61 0.49 0.53 0.62 0.64 0.65 0.68 0.70 0.72 0.71 0.73 0.80 1.04 1.21 1.29 1.52 1.67 1.57 1.58 1.59 1.62 1.67 1.73 1.76
0.39 0.47 0.47 0.42 0.44 0.47 0.40 0.37 0.38 0.47 0.57 0.48 0.49 0.62 0.68 0.67 0.69 0.75 0.71 0.65 0.60 0.58 0.62 0.64 0.68 0.71 0.77 0.85 0.87 0.87 0.96 1.06 1.20 1.33 1.47 1.70 1.90 1.95 1.92 1.85 1.94 2.01 2.00 1.98
0.35 0.46 0.56 0.58 0.64 0.73 0.68 0.55 0.50 0.64 1.03 0.84 0.68 0.71 0.72 0.73 0.91 0.93 0.68 0.60 0.57 0.60 0.67 0.79 0.90 0.90 0.94 1.01 1.00 1.04 1.15 1.35 1.49 1.53 1.56 1.71 1.90 1.97 1.95 1.95 2.14 2.27 2.23 2.16
0.54 0.56 0.58 0.65 0.75 0.76 0.68 0.60 0.64 1.13 1.50 1.07 0.92 0.93 0.97 0.97 0.93 0.81 0.74 0.74 0.66 0.63 0.71 0.77 0.80 0.93 1.05 1.14 1.20 1.32 1.36 1.44 1.49 1.53 1.57 1.69 1.90 2.18 2.13 2.15 2.24 2.32 2.33 2.34
0.74 0.74 0.72 0.78 1.01 1.14 0.74 0.65 1.02 1.38 1.26 1.30 1.26 1.24 1.19 1.04 0.86 0.75 0.75 0.79 0.71 0.68 0.76 0.76 0.76 0.87 1.05 1.25 1.43 1.49 1.47 1.50 1.60 1.61 1.60 1.69 1.94 2.05 2.10 2.23 2.27 2.36 2.45 2.43
0.85 0.95 0.94 1.03 1.25 1.15 0.91 0.98 1.03 1.12 1.24 1.29 1.22 1.23 1.20 1.14 1.02 0.91 0.87 0.83 0.80 0.86 0.85 0.86 0.87 0.94 1.06 1.23 1.44 1.60 1.62 1.62 1.58 1.55 1.52 1.61 1.76 1.86 2.00 2.09 2.02 2.07 2.18 2.17
0.99 0.88 1.10 1.44 1.43 1.26 1.10 1.00 1.02 1.00 1.06 1.06 1.02 0.98 0.97 0.96 0.94 0.91 0.92 0.95 0.98 1.04 1.01 1.01 1.05 1.08 1.13 1.21 1.38 1.54 1.54 1.57 1.56 1.48 1.43 1.54 1.75 1.86 1.93 1.99 1.97 2.02 2.08 2.13
1.27 1.19 1.41 1.81 1.77 1.56 1.45 1.25 1.20 1.07 1.05 1.04 0.98 0.95 0.90 0.81 0.81 0.82 0.79 0.82 0.89 0.98 1.02 1.02 1.06 1.11 1.11 1.16 1.36 1.50 1.51 1.56 1.62 1.58 1.53 1.61 1.73 1.82 1.96 2.02 2.05 2.05 2.05 2.02
1.21 1.43 1.71 1.95 1.77 1.64 1.63 1.33 1.27 1.33 1.21 1.09 1.07 1.03 0.95 0.82 0.78 0.78 0.76 0.76 0.80 0.90 1.03 1.06 1.13 1.15 1.12 1.16 1.28 1.40 1.56 1.71 1.75 1.69 1.65 1.61 1.59 1.67 1.74 1.79 1.74 1.68 1.63 1.61

GEFSCGP_prec_meanprecacc_246.txt.gz
Total_Precipitation_Accumulation
0.01 0.01 0.03 0.04 0.06 0.08 0.11 0.14 0.23 0.28 0.22 0.24 0.41 0.59 0.72 0.83 1.06 1.19 1.22 1.17 1.21 1.51 1.97 2.14 2.45 2.93 3.74 4.47 5.16 5.29 5.59 5.08 4.45 3.94 3.57 3.46 3.27 2.95 2.83 2.71 2.61 2.46 2.21 2.10
0.02 0.05 0.04 0.03 0.04 0.07 0.11 0.16 0.24 0.26 0.18 0.22 0.43 0.71 0.87 0.95 0.94 1.00 1.05 1.11 1.22 1.58 2.04 2.38 2.91 3.30 3.33 3.87 4.57 4.62 4.35 4.14 3.71 3.34 3.19 3.02 2.97 2.64 2.45 2.31 2.36 2.15 2.01 2.03
0.05 0.06 0.04 0.04 0.06 0.11 0.14 0.17 0.21 0.20 0.18 0.27 0.49 0.90 1.18 1.09 0.82 0.74 0.80 0.90 1.03 1.38 1.89 2.31 2.73 3.17 3.14 3.52 3.61 3.24 3.09 3.19 3.15 2.99 2.90 2.76 2.76 2.57 2.30 2.13 2.13 1.96 1.76 1.79
0.03 0.04 0.04 0.04 0.07 0.08 0.11 0.10 0.09 0.10 0.17 0.34 0.49 1.09 1.49 1.26 0.94 0.77 0.80 0.98 1.04 1.15 1.35 1.63 1.97 2.39 2.59 2.68 2.60 2.57 2.55 2.61 2.81 2.82 2.62 2.44 2.17 2.08 2.02 1.90 1.94 1.92 1.66 1.60
0.03 0.03 0.04 0.05 0.05 0.06 0.07 0.05 0.06 0.12 0.17 0.33 0.56 0.92 1.34 1.32 1.25 1.06 0.93 0.98 0.93 0.97 1.04 1.18 1.27 1.49 1.77 2.02 2.09 2.08 2.36 2.47 2.50 2.50 2.47 2.51 2.25 2.06 2.01 2.11 2.31 2.22 1.88 1.56
0.05 0.05 0.05 0.04 0.04 0.05 0.05 0.06 0.14 0.29 0.43 0.77 0.76 0.82 1.20 1.16 1.08 1.06 0.92 0.78 0.73 0.77 0.82 0.99 1.03 1.07 1.20 1.35 1.48 1.60 1.88 2.11 2.19 2.15 2.17 2.25 2.28 2.25 2.06 2.00 2.06 1.99 1.82 1.62
0.14 0.12 0.09 0.05 0.05 0.06 0.06 0.10 0.36 0.76 1.09 1.25 0.82 0.78 0.99 0.87 0.87 0.95 0.76 0.52 0.49 0.59 0.64 0.82 0.81 0.85 0.95 0.99 1.09 1.28 1.49 1.67 1.79 1.87 1.95 2.03 2.23 2.20 1.97 1.76 1.80 1.78 1.61 1.53
0.16 0.19 0.11 0.05 0.06 0.07 0.07 0.08 0.23 0.40 0.56 0.77 0.81 1.16 1.09 0.71 0.67 0.60 0.45 0.34 0.32 0.48 0.57 0.62 0.57 0.59 0.74 0.80 0.88 1.04 1.18 1.28 1.39 1.61 1.85 1.85 2.00 1.87 1.74 1.86 1.76 1.64 1.43 1.46
0.07 0.07 0.06 0.05 0.06 0.07 0.06 0.05 0.08 0.12 0.18 0.48 0.90 1.27 1.06 0.65 0.58 0.48 0.34 0.27 0.31 0.39 0.53 0.51 0.45 0.46 0.50 0.55 0.63 0.81 1.08 1.18 1.22 1.31 1.53 1.65 1.65 1.68 1.76 1.94 1.89 1.72 1.62 1.49
0.04 0.03 0.04 0.05 0.06 0.07 0.07 0.06 0.07 0.09 0.18 0.38 0.77 1.16 1.27 1.01 0.73 0.51 0.39 0.37 0.45 0.47 0.60 0.63 0.47 0.43 0.46 0.46 0.56 0.66 0.84 1.08 1.24 1.22 1.23 1.28 1.53 1.60 1.72 1.81 1.75 1.73 1.66 1.64
0.04 0.02 0.04 0.05 0.07 0.08 0.08 0.09 0.09 0.11 0.15 0.26 0.60 0.87 0.81 0.82 0.64 0.50 0.50 0.59 0.47 0.46 0.54 0.60 0.43 0.38 0.41 0.44 0.51 0.64 0.78 1.06 1.25 1.17 1.20 1.31 1.47 1.56 1.62 1.78 1.77 1.71 1.69 1.72
0.05 0.03 0.04 0.08 0.12 0.11 0.10 0.11 0.11 0.15 0.17 0.18 0.31 0.55 0.47 0.55 0.55 0.64 0.67 0.64 0.57 0.55 0.56 0.59 0.51 0.56 0.57 0.58 0.62 0.75 0.86 1.03 1.14 1.16 1.24 1.30 1.40 1.48 1.53 1.59 1.67 1.74 1.72 1.78
0.06 0.05 0.07 0.22 0.32 0.23 0.15 0.11 0.12 0.13 0.13 0.16 0.33 0.56 0.48 0.53 0.59 0.65 0.67 0.65 0.71 0.73 0.66 0.62 0.65 0.78 0.74 0.73 0.83 0.92 1.02 1.05 1.15 1.28 1.28 1.24 1.31 1.29 1.35 1.44 1.51 1.64 1.69 1.73
0.07 0.06 0.08 0.22 0.33 0.37 0.27 0.17 0.16 0.13 0.14 0.18 0.28 0.50 0.49 0.61 0.83 0.75 0.79 0.76 0.69 0.71 0.68 0.58 0.66 0.74 0.76 0.77 0.85 0.96 1.01 1.03 1.13 1.18 1.21 1.24 1.24 1.28 1.38 1.46 1.51 1.56 1.52 1.59
0.09 0.07 0.05 0.09 0.17 0.20 0.22 0.21 0.19 0.14 0.12 0.18 0.27 0.42 0.57 0.69 0.92 0.78 0.75 0.81 0.88 0.75 0.67 0.56 0.61 0.71 0.79 0.83 0.82 0.87 0.96 1.03 1.17 1.18 1.15 1.21 1.29 1.31 1.36 1.38 1.40 1.42 1.47 1.50
0.15 0.11 0.10 0.11 0.14 0.14 0.16 0.18 0.16 0.12 0.10 0.10 0.21 0.42 0.62 0.72 0.79 0.76 0.62 0.63 0.83 0.75 0.67 0.66 0.72 0.83 0.78 0.74 0.74 0.76 0.78 0.88 1.06 1.17 1.26 1.34 1.34 1.27 1.34 1.39 1.39 1.38 1.48 1.57
0.28 0.22 0.21 0.21 0.17 0.19 0.26 0.21 0.18 0.15 0.13 0.14 0.26 0.42 0.59 0.73 0.68 0.73 0.66 0.59 0.60 0.60 0.58 0.66 0.74 0.78 0.77 0.74 0.70 0.70 0.70 0.82 1.09 1.19 1.22 1.40 1.50 1.42 1.50 1.55 1.54 1.50 1.52 1.65
0.38 0.39 0.32 0.28 0.31 0.38 0.30 0.25 0.23 0.26 0.27 0.25 0.28 0.41 0.62 0.82 0.75 0.70 0.70 0.68 0.62 0.50 0.55 0.64 0.67 0.68 0.70 0.72 0.72 0.71 0.74 0.80 1.04 1.22 1.32 1.58 1.74 1.65 1.66 1.67 1.70 1.73 1.78 1.81
0.39 0.47 0.47 0.43 0.44 0.47 0.40 0.37 0.38 0.47 0.57 0.48 0.49 0.63 0.69 0.68 0.70 0.77 0.72 0.66 0.60 0.58 0.63 0.65 0.69 0.72 0.79 0.86 0.88 0.88 0.97 1.07 1.22 1.36 1.50 1.74 1.97 2.11 2.06 1.92 1.99 2.06 2.04 2.03
0.35 0.46 0.56 0.58 0.64 0.74 0.69 0.55 0.50 0.65 1.04 0.84 0.69 0.71 0.73 0.73 0.93 0.95 0.69 0.60 0.58 0.60 0.68 0.80 0.91 0.92 0.96 1.03 1.02 1.05 1.17 1.37 1.51 1.55 1.59 1.74 1.97 2.09 2.05 2.03 2.20 2.32 2.27 2.21
0.55 0.56 0.59 0.65 0.76 0.77 0.69 0.60 0.64 1.15 1.53 1.08 0.93 0.94 0.98 0.98 0.94 0.82 0.74 0.76 0.68 0.64 0.72 0.79 0.82 0.95 1.07 1.17 1.23 1.33 1.38 1.46 1.52 1.56 1.60 1.74 1.98 2.25 2.20 2.21 2.29 2.38 2.38 2.38
0.75 0.75 0.73 0.78 1.02 1.15 0.75 0.66 1.03 1.40 1.27 1.31 1.28 1.25 1.19 1.05 0.88 0.76 0.75 0.80 0.73 0.69 0.77 0.78 0.77 0.89 1.06 1.26 1.45 1.51 1.48 1.52 1.62 1.63 1.63 1.72 1.98 2.09 2.14 2.28 2.33 2.43 2.52 2.49
0.88 0.97 0.96 1.05 1.27 1.16 0.92 1.00 1.06 1.14 1.24 1.30 1.23 1.23 1.20 1.15 1.03 0.92 0.88 0.84 0.81 0.87 0.86 0.87 0.89 0.96 1.08 1.25 1.46 1.62 1.64 1.63 1.60 1.56 1.53 1.62 1.78 1.88 2.03 2.12 2.07 2.12 2.25 2.24
1.02 0.90 1.12 1.46 1.46 1.28 1.11 1.01 1.03 1.01 1.06 1.06 1.02 0.98 0.97 0.96 0.94 0.92 0.93 0.96 0.99 1.04 1.02 1.01 1.06 1.09 1.15 1.23 1.40 1.56 1.57 1.58 1.57 1.50 1.45 1.55 1.76 1.88 1.95 2.02 2.00 2.05 2.10 2.16
1.29 1.22 1.43 1.83 1.81 1.61 1.47 1.26 1.21 1.07 1.05 1.05 0.98 0.95 0.90 0.82 0.81 0.82 0.80 0.83 0.90 1.00 1.03 1.03 1.07 1.12 1.13 1.18 1.39 1.52 1.54 1.60 1.65 1.60 1.55 1.63 1.74 1.83 1.98 2.04 2.07 2.07 2.07 2.05
1.24 1.45 1.74 1.98 1.80 1.67 1.66 1.34 1.29 1.33 1.22 1.10 1.08 1.04 0.95 0.83 0.78 0.79 0.77 0.79 0.83 0.93 1.06 1.08 1.14 1.15 1.13 1.17 1.31 1.43 1.60 1.75 1.79 1.72 1.68 1.64 1.61 1.69 1.76 1.81 1.77 1.72 1.67 1.65

GEFSCGP_prec_meanprecacc_252.txt.gz
Total_Precipitation_Accumulation
0.01 0.01 0.03 0.04 0.06 0.09 0.14 0.17 0.26 0.31 0.23 0.25 0.42 0.61 0.72 0.83 1.07 1.20 1.22 1.17 1.22 1.51 1.97 2.14 2.45 2.94 3.74 4.47 5.16 5.30 5.60 5.09 4.46 3.95 3.58 3.47 3.27 2.96 2.84 2.72 2.64 2.49 2.24 2.14
0.02 0.05 0.05 0.04 0.05 0.08 0.12 0.18 0.27 0.27 0.19 0.23 0.44 0.74 0.89 0.96 0.95 1.01 1.06 1.13 1.22 1.58 2.04 2.38 2.91 3.30 3.33 3.87 4.57 4.63 4.35 4.15 3.71 3.34 3.19 3.03 2.98 2.64 2.47 2.34 2.41 2.20 2.05 2.08
0.05 0.07 0.05 0.04 0.06 0.12 0.15 0.18 0.22 0.21 0.20 0.29 0.50 0.93 1.21 1.11 0.83 0.75 0.81 0.91 1.04 1.38 1.89 2.31 2.73 3.17 3.14 3.52 3.61 3.24 3.10 3.20 3.16 3.00 2.90 2.76 2.77 2.57 2.31 2.16 2.18 2.02 1.81 1.84
0.04 0.04 0.04 0.05 0.07 0.08 0.11 0.10 0.10 0.11 0.19 0.36 0.52 1.13 1.52 1.28 0.96 0.78 0.81 0.98 1.04 1.15 1.35 1.64 1.97 2.39 2.59 2.68 2.60 2.57 2.56 2.63 2.84 2.84 2.62 2.45 2.17 2.09 2.03 1.92 1.98 1.96 1.71 1.65
0.04 0.04 0.04 0.05 0.06 0.06 0.07 0.06 0.07 0.12 0.18 0.37 0.59 0.94 1.39 1.36 1.28 1.09 0.94 0.99 0.94 0.97 1.05 1.18 1.28 1.49 1.77 2.02 2.09 2.09 2.39 2.51 2.54 2.52 2.48 2.52 2.25 2.07 2.02 2.12 2.33 2.25 1.93 1.61
0.05 0.06 0.05 0.04 0.05 0.06 0.06 0.07 0.15 0.30 0.43 0.79 0.79 0.84 1.24 1.19 1.10 1.09 0.93 0.79 0.74 0.78 0.82 1.00 1.03 1.07 1.20 1.36 1.49 1.63 1.93 2.16 2.23 2.18 2.19 2.25 2.29 2.27 2.08 2.01 2.07 2.01 1.86 1.66
0.14 0.12 0.10 0.05 0.06 0.07 0.07 0.11 0.38 0.78 1.10 1.28 0.85 0.79 1.01 0.90 0.90 1.01 0.79 0.55 0.50 0.60 0.64 0.82 0.81 0.85 0.96 1.00 1.11 1.33 1.56 1.72 1.83 1.90 1.97 2.04 2.24 2.21 1.98 1.77 1.81 1.79 1.63 1.55
0.16 0.19 0.11 0.05 0.06 0.07 0.07 0.09 0.24 0.43 0.60 0.82 0.85 1.18 1.11 0.75 0.72 0.64 0.48 0.37 0.34 0.50 0.57 0.63 0.58 0.60 0.74 0.81 0.90 1.07 1.24 1.34 1.46 1.66 1.87 1.86 2.01 1.89 1.75 1.87 1.77 1.66 1.45 1.48
0.07 0.07 0.06 0.05 0.06 0.07 0.06 0.06 0.08 0.13 0.21 0.51 0.92 1.29 1.09 0.71 0.65 0.50 0.37 0.30 0.34 0.40 0.54 0.52 0.46 0.48 0.51 0.56 0.65 0.85 1.15 1.24 1.27 1.36 1.56 1.66 1.67 1.69 1.78 1.95 1.90 1.73 1.64 1.52
0.04 0.03 0.04 0.05 0.06 0.07 0.07 0.07 0.08 0.11 0.20 0.40 0.79 1.19 1.30 1.06 0.77 0.52 0.43 0.40 0.48 0.49 0.62 0.66 0.51 0.48 0.49 0.48 0.58 0.68 0.85 1.10 1.28 1.27 1.26 1.29 1.55 1.61 1.73 1.82 1.76 1.74 1.69 1.68
0.04 0.02 0.04 0.05 0.07 0.08 0.09 0.09 0.10 0.12 0.18 0.28 0.62 0.90 0.83 0.84 0.67 0.52 0.52 0.61 0.49 0.49 0.56 0.64 0.47 0.44 0.44 0.48 0.54 0.65 0.79 1.07 1.27 1.18 1.21 1.32 1.49 1.59 1.64 1.79 1.78 1.73 1.71 1.76
0.05 0.03 0.04 0.08 0.12 0.11 0.10 0.11 0.12 0.16 0.18 0.19 0.32 0.56 0.48 0.57 0.59 0.68 0.71 0.66 0.59 0.58 0.59 0.63 0.55 0.60 0.63 0.67 0.70 0.78 0.88 1.04 1.15 1.16 1.24 1.32 1.42 1.50 1.56 1.62 1.70 1.76 1.74 1.81
0.06 0.05 0.07 0.22 0.32 0.23 0.15 0.11 0.12 0.14 0.14 0.18 0.36 0.59 0.51 0.58 0.62 0.68 0.69 0.66 0.72 0.75 0.70 0.67 0.70 0.82 0.79 0.83 0.95 0.99 1.04 1.06 1.15 1.29 1.30 1.26 1.33 1.32 1.38 1.48 1.55 1.68 1.74 1.80
0.07 0.07 0.08 0.22 0.34 0.37 0.27 0.18 0.16 0.14 0.14 0.18 0.28 0.50 0.50 0.63 0.85 0.79 0.82 0.79 0.71 0.74 0.73 0.66 0.72 0.81 0.86 0.90 0.98 1.03 1.03 1.05 1.15 1.19 1.23 1.27 1.27 1.32 1.42 1.51 1.57 1.66 1.67 1.72
0.09 0.07 0.06 0.10 0.18 0.21 0.23 0.21 0.19 0.14 0.12 0.18 0.27 0.43 0.58 0.69 0.93 0.80 0.78 0.86 0.92 0.78 0.72 0.64 0.70 0.82 0.98 0.98 0.91 0.94 1.01 1.06 1.20 1.21 1.18 1.24 1.35 1.38 1.42 1.42 1.46 1.53 1.57 1.56
0.15 0.11 0.10 0.11 0.14 0.15 0.17 0.19 0.16 0.12 0.10 0.11 0.21 0.44 0.63 0.73 0.80 0.78 0.66 0.70 0.91 0.81 0.71 0.70 0.81 0.97 0.97 0.88 0.85 0.88 0.86 0.95 1.11 1.20 1.29 1.37 1.39 1.32 1.39 1.42 1.43 1.47 1.54 1.61
0.28 0.22 0.21 0.21 0.17 0.19 0.26 0.21 0.19 0.16 0.14 0.15 0.28 0.45 0.62 0.77 0.72 0.78 0.72 0.67 0.67 0.64 0.64 0.72 0.80 0.87 0.90 0.90 0.86 0.82 0.77 0.89 1.17 1.25 1.26 1.44 1.54 1.46 1.54 1.58 1.58 1.56 1.56 1.68
0.38 0.39 0.32 0.28 0.31 0.38 0.30 0.26 0.25 0.27 0.28 0.26 0.30 0.42 0.63 0.84 0.78 0.75 0.76 0.74 0.67 0.55 0.60 0.70 0.73 0.74 0.78 0.81 0.81 0.81 0.85 0.90 1.13 1.30 1.38 1.62 1.77 1.68 1.70 1.72 1.74 1.77 1.82 1.85
0.39 0.47 0.47 0.43 0.44 0.47 0.41 0.38 0.40 0.48 0.59 0.50 0.51 0.64 0.70 0.69 0.72 0.79 0.74 0.68 0.63 0.61 0.65 0.69 0.75 0.80 0.87 0.94 0.96 0.96 1.06 1.17 1.32 1.45 1.56 1.78 2.02 2.16 2.12 1.98 2.06 2.14 2.12 2.10
0.35 0.46 0.56 0.58 0.65 0.74 0.69 0.55 0.51 0.66 1.06 0.87 0.70 0.73 0.74 0.75 0.95 0.96 0.70 0.62 0.59 0.63 0.72 0.86 1.00 0.99 1.03 1.14 1.10 1.12 1.26 1.47 1.62 1.63 1.64 1.79 2.02 2.14 2.12 2.14 2.35 2.45 2.37 2.27
0.55 0.57 0.60 0.66 0.76 0.77 0.69 0.61 0.64 1.16 1.56 1.11 0.94 0.95 0.99 1.00 0.96 0.83 0.75 0.77 0.69 0.67 0.76 0.82 0.85 0.98 1.11 1.22 1.29 1.41 1.45 1.53 1.58 1.61 1.64 1.77 2.02 2.31 2.28 2.31 2.39 2.45 2.45 2.44
0.76 0.77 0.75 0.79 1.03 1.16 0.75 0.67 1.03 1.41 1.29 1.33 1.30 1.27 1.21 1.06 0.88 0.77 0.76 0.82 0.75 0.73 0.79 0.80 0.79 0.90 1.08 1.28 1.49 1.56 1.53 1.55 1.65 1.66 1.66 1.75 2.02 2.15 2.21 2.34 2.38 2.47 2.56 2.53
0.89 0.98 0.98 1.07 1.29 1.18 0.93 1.01 1.07 1.16 1.27 1.32 1.26 1.26 1.23 1.17 1.05 0.94 0.89 0.86 0.83 0.89 0.88 0.89 0.90 0.98 1.10 1.27 1.49 1.67 1.68 1.66 1.61 1.58 1.55 1.64 1.81 1.91 2.06 2.15 2.09 2.15 2.28 2.27
1.05 0.93 1.15 1.48 1.48 1.30 1.15 1.08 1.06 1.06 1.12 1.09 1.04 1.00 0.99 0.99 0.97 0.94 0.95 0.98 1.01 1.06 1.03 1.03 1.07 1.11 1.18 1.27 1.45 1.62 1.62 1.63 1.61 1.53 1.48 1.59 1.80 1.90 1.98 2.04 2.02 2.07 2.12 2.19
1.33 1.26 1.48 1.87 1.84 1.64 1.50 1.30 1.23 1.10 1.11 1.10 1.01 0.97 0.92 0.84 0.84 0.84 0.83 0.86 0.93 1.02 1.05 1.06 1.11 1.17 1.20 1.25 1.43 1.56 1.59 1.64 1.70 1.65 1.59 1.68 1.79 1.87 2.02 2.08 2.10 2.10 2.09 2.07
1.28 1.49 1.79 2.04 1.85 1.74 1.70 1.37 1.31 1.35 1.24 1.12 1.11 1.07 0.98 0.84 0.80 0.82 0.80 0.82 0.86 0.96 1.10 1.16 1.24 1.24 1.21 1.22 1.35 1.47 1.65 1.81 1.84 1.78 1.73 1.70 1.66 1.74 1.80 1.84 1.79 1.74 1.69 1.67